WJA352 CYYC-CYXE

Flight info

Callsign WJA352
Flight time 0h 51m
Altitude 37000
Route DCT LOMLO Q979 IMOTA DCT MAVOB MAVOB7
Aircraft B738/M-SDE2E3FGHIRWXY/LB1

Departure

Time 2026-05-05 17:41
Airport Calgary International Airport (CYYC)

Arrival

Time 2026-05-05 18:32
Airport Saskatoon John G. Diefenbaker International Airport (CYXE)
Time Latitude Longitude Altitude Speed Heading
2026-05-05 16:54 51.12909 -114.00935 3559 ft 0 kts 95°
2026-05-05 17:26 51.12911 -114.00956 3559 ft 4 kts 100°
2026-05-05 17:27 51.12919 -114.00996 3559 ft 4 kts 128°
2026-05-05 17:27 51.12936 -114.01016 3559 ft 4 kts 191°
2026-05-05 17:27 51.12942 -114.01014 3559 ft 1 kts 203°
2026-05-05 17:30 51.12939 -114.01016 3559 ft 2 kts 204°
2026-05-05 17:31 51.12905 -114.01042 3559 ft 8 kts 206°
2026-05-05 17:31 51.12832 -114.01081 3556 ft 14 kts 179°
2026-05-05 17:31 51.12760 -114.00968 3556 ft 16 kts 114°
2026-05-05 17:31 51.12743 -114.00840 3559 ft 10 kts 108°
2026-05-05 17:32 51.12686 -114.00794 3557 ft 10 kts 179°
2026-05-05 17:32 51.12623 -114.00764 3555 ft 10 kts 128°
2026-05-05 17:32 51.12613 -114.00657 3559 ft 10 kts 92°
2026-05-05 17:32 51.12612 -114.00547 3559 ft 10 kts 90°
2026-05-05 17:33 51.12612 -114.00435 3559 ft 10 kts 89°
2026-05-05 17:33 51.12613 -114.00323 3559 ft 10 kts 90°
2026-05-05 17:33 51.12613 -114.00210 3559 ft 10 kts 90°
2026-05-05 17:33 51.12614 -114.00095 3559 ft 10 kts 90°
2026-05-05 17:34 51.12614 -113.99980 3559 ft 10 kts 90°
2026-05-05 17:34 51.12613 -113.99865 3559 ft 10 kts 91°
2026-05-05 17:34 51.12612 -113.99748 3559 ft 11 kts 89°
2026-05-05 17:34 51.12613 -113.99632 3559 ft 11 kts 89°
2026-05-05 17:35 51.12612 -113.99516 3559 ft 10 kts 99°
2026-05-05 17:35 51.12562 -113.99449 3559 ft 10 kts 172°
2026-05-05 17:35 51.12491 -113.99445 3559 ft 10 kts 179°
2026-05-05 17:35 51.12418 -113.99448 3559 ft 11 kts 181°
2026-05-05 17:36 51.12341 -113.99449 3559 ft 11 kts 180°
2026-05-05 17:36 51.12259 -113.99449 3559 ft 12 kts 180°
2026-05-05 17:36 51.12173 -113.99448 3559 ft 13 kts 179°
2026-05-05 17:36 51.12084 -113.99447 3557 ft 13 kts 179°
2026-05-05 17:37 51.11990 -113.99446 3559 ft 14 kts 180°
2026-05-05 17:37 51.11926 -113.99446 3557 ft 14 kts 180°
2026-05-05 17:37 51.11796 -113.99446 3557 ft 14 kts 180°
2026-05-05 17:37 51.11696 -113.99447 3556 ft 14 kts 180°
2026-05-05 17:38 51.11600 -113.99448 3559 ft 10 kts 180°
2026-05-05 17:38 51.11542 -113.99400 3559 ft 10 kts 115°
2026-05-05 17:38 51.11535 -113.99294 3560 ft 9 kts 92°
2026-05-05 17:38 51.11534 -113.99200 3562 ft 7 kts 89°
2026-05-05 17:39 51.11535 -113.99139 3564 ft 5 kts 88°
2026-05-05 17:39 51.11536 -113.99075 3565 ft 7 kts 88°
2026-05-05 17:39 51.11567 -113.99037 3562 ft 0 kts
2026-05-05 17:40 51.11642 -113.99031 3557 ft 34 kts
2026-05-05 17:40 51.12084 -113.99032 3563 ft 92 kts
2026-05-05 17:40 51.12894 -113.99032 3557 ft 139 kts
2026-05-05 17:41 51.13894 -113.98989 3987 ft 143 kts
2026-05-05 17:41 51.14899 -113.98878 4510 ft 146 kts
2026-05-05 17:41 51.15909 -113.98536 5018 ft 151 kts 13°
2026-05-05 17:41 51.16961 -113.98052 5467 ft 163 kts 15°
2026-05-05 17:42 51.18084 -113.97488 5980 ft 175 kts 14°
2026-05-05 17:42 51.19328 -113.97030 6513 ft 193 kts 11°
2026-05-05 17:42 51.20687 -113.96543 7190 ft 209 kts 17°
2026-05-05 17:42 51.21882 -113.95142 7884 ft 229 kts 50°
2026-05-05 17:43 51.22513 -113.92710 8557 ft 251 kts 79°
2026-05-05 17:43 51.22314 -113.89806 9210 ft 273 kts 107°
2026-05-05 17:43 51.21502 -113.87011 10021 ft 283 kts 113°
2026-05-05 17:43 51.20630 -113.84095 10590 ft 299 kts 111°
2026-05-05 17:44 51.19735 -113.81002 11094 ft 316 kts 111°
2026-05-05 17:44 51.18782 -113.77739 11587 ft 333 kts 111°
2026-05-05 17:44 51.17779 -113.74372 12111 ft 347 kts 111°
2026-05-05 17:44 51.16721 -113.70871 12851 ft 353 kts 111°
2026-05-05 17:45 51.15644 -113.67318 13615 ft 359 kts 111°
2026-05-05 17:45 51.14553 -113.63704 14353 ft 365 kts 110°
2026-05-05 17:45 51.13449 -113.60032 15087 ft 370 kts 110°
2026-05-05 17:45 51.12328 -113.56311 15803 ft 375 kts 110°
2026-05-05 17:46 51.11189 -113.52542 16501 ft 381 kts 110°
2026-05-05 17:46 51.10030 -113.48716 17180 ft 386 kts 109°
2026-05-05 17:46 51.08855 -113.44839 17863 ft 391 kts 109°
2026-05-05 17:46 51.07694 -113.40905 18531 ft 393 kts 105°
2026-05-05 17:47 51.06925 -113.36768 19181 ft 388 kts 92°
2026-05-05 17:47 51.06600 -113.32524 19839 ft 388 kts 87°
2026-05-05 17:47 51.06342 -113.28241 20504 ft 391 kts 86°
2026-05-05 17:47 51.06098 -113.23921 21151 ft 394 kts 86°
2026-05-05 17:48 51.05933 -113.21038 21556 ft 397 kts 86°
2026-05-05 17:48 51.05653 -113.16641 22151 ft 402 kts 86°
2026-05-05 17:48 51.05336 -113.12208 22741 ft 406 kts 86°
2026-05-05 17:48 51.05004 -113.07732 23314 ft 410 kts 86°
2026-05-05 17:49 51.04669 -113.03155 23866 ft 413 kts 86°
2026-05-05 17:49 51.04351 -112.98670 24378 ft 416 kts 85°
2026-05-05 17:49 51.04032 -112.94084 24886 ft 419 kts 85°
2026-05-05 17:49 51.03706 -112.89464 25373 ft 422 kts 85°
2026-05-05 17:50 51.03370 -112.84826 25843 ft 425 kts 85°
2026-05-05 17:50 51.03030 -112.80142 26298 ft 428 kts 85°
2026-05-05 17:50 51.02687 -112.75441 26753 ft 430 kts 84°
2026-05-05 17:50 51.02340 -112.70713 27165 ft 433 kts 84°
2026-05-05 17:51 51.01989 -112.65946 27586 ft 435 kts 84°
2026-05-05 17:51 51.01636 -112.61170 27998 ft 436 kts 83°
2026-05-05 17:51 51.01279 -112.56364 28394 ft 438 kts 83°
2026-05-05 17:51 51.00921 -112.51552 28769 ft 441 kts 83°
2026-05-05 17:52 51.00558 -112.46706 29108 ft 443 kts 83°
2026-05-05 17:52 51.00187 -112.41832 29443 ft 445 kts 82°
2026-05-05 17:52 50.99813 -112.36972 29987 ft 442 kts 82°
2026-05-05 17:52 50.99438 -112.32147 30476 ft 440 kts 81°
2026-05-05 17:53 50.99067 -112.27337 30931 ft 438 kts 81°
2026-05-05 17:53 50.98700 -112.22542 31340 ft 438 kts 81°
2026-05-05 17:53 50.98333 -112.17742 31756 ft 438 kts 81°
2026-05-05 17:53 50.97960 -112.12943 32173 ft 437 kts 82°
2026-05-05 17:54 50.97587 -112.08218 32579 ft 437 kts 82°
2026-05-05 17:54 50.97202 -112.03368 32960 ft 437 kts 82°
2026-05-05 17:54 50.96824 -111.98638 33334 ft 438 kts 82°
2026-05-05 17:54 50.96443 -111.93846 33693 ft 438 kts 82°
2026-05-05 17:55 50.96060 -111.89049 34035 ft 439 kts 83°
2026-05-05 17:55 50.95672 -111.84244 34371 ft 440 kts 83°
2026-05-05 17:55 50.95280 -111.79432 34714 ft 440 kts 84°
2026-05-05 17:55 50.94886 -111.74621 35055 ft 440 kts 84°
2026-05-05 17:56 50.94490 -111.69810 35390 ft 440 kts 85°
2026-05-05 17:56 50.94093 -111.64997 35722 ft 440 kts 85°
2026-05-05 17:56 50.93696 -111.60188 36056 ft 440 kts 85°
2026-05-05 17:56 50.93297 -111.55379 36380 ft 439 kts 86°
2026-05-05 17:57 50.93171 -111.50629 36689 ft 425 kts 75°
2026-05-05 17:57 50.93542 -111.46071 37008 ft 410 kts 66°
2026-05-05 17:57 50.94394 -111.41850 37208 ft 399 kts 56°
2026-05-05 17:58 50.96767 -111.33828 37221 ft 405 kts 53°
2026-05-05 17:58 50.99315 -111.25783 37222 ft 413 kts 54°
2026-05-05 17:59 51.01805 -111.17473 37223 ft 419 kts 56°
2026-05-05 17:59 51.04310 -111.09100 37219 ft 418 kts 55°
2026-05-05 18:00 51.06801 -111.00856 37217 ft 411 kts 55°
2026-05-05 18:00 51.09264 -110.92658 37215 ft 411 kts 56°
2026-05-05 18:01 51.11719 -110.84436 37216 ft 412 kts 56°
2026-05-05 18:01 51.14179 -110.76177 37223 ft 414 kts 56°
2026-05-05 18:02 51.16641 -110.67880 37218 ft 415 kts 56°
2026-05-05 18:02 51.19088 -110.59607 37219 ft 415 kts 56°
2026-05-05 18:03 51.21565 -110.51203 37221 ft 417 kts 56°
2026-05-05 18:03 51.24009 -110.42881 37222 ft 417 kts 57°
2026-05-05 18:04 51.26469 -110.34473 37218 ft 418 kts 57°
2026-05-05 18:04 51.28923 -110.26057 37209 ft 418 kts 57°
2026-05-05 18:05 51.31370 -110.17638 37212 ft 418 kts 57°
2026-05-05 18:05 51.33813 -110.09204 37211 ft 418 kts 57°
2026-05-05 18:06 51.36252 -110.00750 37209 ft 419 kts 57°
2026-05-05 18:06 51.38691 -109.92268 37207 ft 420 kts 58°
2026-05-05 18:07 51.41135 -109.83743 37208 ft 423 kts 58°
2026-05-05 18:07 51.43578 -109.75178 37212 ft 423 kts 58°
2026-05-05 18:08 51.46015 -109.66607 37207 ft 422 kts 58°
2026-05-05 18:08 51.48444 -109.58041 37210 ft 422 kts 58°
2026-05-05 18:09 51.50864 -109.49472 37211 ft 421 kts 58°
2026-05-05 18:09 51.52073 -109.45179 37084 ft 425 kts 58°
2026-05-05 18:09 51.53295 -109.40843 36735 ft 426 kts 59°
2026-05-05 18:09 51.54505 -109.36519 36281 ft 422 kts 59°
2026-05-05 18:10 51.55702 -109.32231 35831 ft 419 kts 59°
2026-05-05 18:10 51.56891 -109.27970 35383 ft 416 kts 59°
2026-05-05 18:10 51.58072 -109.23742 34933 ft 414 kts 59°
2026-05-05 18:10 51.59246 -109.19534 34485 ft 411 kts 59°
2026-05-05 18:11 51.60413 -109.15342 34030 ft 409 kts 59°
2026-05-05 18:11 51.61566 -109.11184 33589 ft 406 kts 59°
2026-05-05 18:11 51.62711 -109.07049 33143 ft 404 kts 59°
2026-05-05 18:11 51.63870 -109.02874 32698 ft 415 kts 59°
2026-05-05 18:12 51.65059 -108.98593 32230 ft 420 kts 60°
2026-05-05 18:12 51.66239 -108.94300 31734 ft 418 kts 60°
2026-05-05 18:12 51.67406 -108.90029 31235 ft 414 kts 61°
2026-05-05 18:12 51.68563 -108.85794 30735 ft 410 kts 61°
2026-05-05 18:13 51.69712 -108.81603 30235 ft 407 kts 61°
2026-05-05 18:13 51.70851 -108.77454 29741 ft 403 kts 62°
2026-05-05 18:13 51.71984 -108.73313 29252 ft 404 kts 62°
2026-05-05 18:13 51.73120 -108.69154 28756 ft 405 kts 62°
2026-05-05 18:14 51.74246 -108.65011 28262 ft 401 kts 62°
2026-05-05 18:14 51.75359 -108.60902 27763 ft 398 kts 63°
2026-05-05 18:14 51.76466 -108.56814 27269 ft 396 kts 63°
2026-05-05 18:14 51.77568 -108.52745 26775 ft 394 kts 63°
2026-05-05 18:15 51.78663 -108.48696 26277 ft 392 kts 63°
2026-05-05 18:15 51.79749 -108.44673 25781 ft 390 kts 63°
2026-05-05 18:15 51.80828 -108.40663 25283 ft 388 kts 63°
2026-05-05 18:15 51.81898 -108.36679 24784 ft 386 kts 63°
2026-05-05 18:16 51.82963 -108.32709 24286 ft 384 kts 63°
2026-05-05 18:16 51.84019 -108.28766 23791 ft 382 kts 63°
2026-05-05 18:16 51.85069 -108.24839 23299 ft 380 kts 63°
2026-05-05 18:16 51.86115 -108.20923 22807 ft 377 kts 63°
2026-05-05 18:17 51.87152 -108.17028 22316 ft 375 kts 63°
2026-05-05 18:17 51.88181 -108.13162 21822 ft 373 kts 63°
2026-05-05 18:17 51.89202 -108.09310 21325 ft 371 kts 63°
2026-05-05 18:17 51.90216 -108.05478 20833 ft 369 kts 63°
2026-05-05 18:18 51.91225 -108.01667 20396 ft 366 kts 63°
2026-05-05 18:18 51.92081 -107.97798 19955 ft 365 kts 69°
2026-05-05 18:18 51.92836 -107.93895 19515 ft 362 kts 69°
2026-05-05 18:18 51.93573 -107.90016 19073 ft 359 kts 69°
2026-05-05 18:19 51.94296 -107.86168 18626 ft 356 kts 69°
2026-05-05 18:19 51.95013 -107.82345 18178 ft 352 kts 69°
2026-05-05 18:19 51.95724 -107.78565 17733 ft 349 kts 69°
2026-05-05 18:19 51.96431 -107.74818 17290 ft 346 kts 69°
2026-05-05 18:20 51.97132 -107.71093 16847 ft 343 kts 69°
2026-05-05 18:20 51.97822 -107.67410 16405 ft 340 kts 69°
2026-05-05 18:20 51.98497 -107.63799 15985 ft 336 kts 69°
2026-05-05 18:20 51.99179 -107.60141 15559 ft 332 kts 69°
2026-05-05 18:21 51.99833 -107.56617 15148 ft 329 kts 69°
2026-05-05 18:21 52.00498 -107.53039 14719 ft 325 kts 69°
2026-05-05 18:21 52.01147 -107.49547 14299 ft 321 kts 69°
2026-05-05 18:21 52.01581 -107.46044 13880 ft 323 kts 82°
2026-05-05 18:22 52.01558 -107.42401 13470 ft 321 kts 88°
2026-05-05 18:22 52.01463 -107.38801 13079 ft 317 kts 88°
2026-05-05 18:22 52.01349 -107.35250 12680 ft 313 kts 89°
2026-05-05 18:22 52.01234 -107.31770 12429 ft 304 kts 88°
2026-05-05 18:23 52.01130 -107.28379 12185 ft 299 kts 88°
2026-05-05 18:23 52.01033 -107.25021 11866 ft 295 kts 88°
2026-05-05 18:23 52.00938 -107.21708 11480 ft 292 kts 88°
2026-05-05 18:23 52.00841 -107.18420 11074 ft 291 kts 88°
2026-05-05 18:24 52.00741 -107.15150 10650 ft 289 kts 88°
2026-05-05 18:24 52.00640 -107.11891 10242 ft 289 kts 89°
2026-05-05 18:24 52.00539 -107.08680 10074 ft 280 kts 89°
2026-05-05 18:24 52.00439 -107.05540 9888 ft 278 kts 89°
2026-05-05 18:25 52.00341 -107.02385 9483 ft 280 kts 89°
2026-05-05 18:25 52.00308 -107.01316 9346 ft 280 kts 89°
2026-05-05 18:25 52.00141 -106.96071 8688 ft 280 kts 89°
2026-05-05 18:25 52.00038 -106.92921 8304 ft 280 kts 89°
2026-05-05 18:26 51.99934 -106.89771 7908 ft 280 kts 89°
2026-05-05 18:26 51.99830 -106.86617 7507 ft 280 kts 89°
2026-05-05 18:26 51.99723 -106.83460 7100 ft 278 kts 90°
2026-05-05 18:26 51.99618 -106.80372 6720 ft 271 kts 90°
2026-05-05 18:27 51.99516 -106.77351 6365 ft 265 kts 89°
2026-05-05 18:27 51.99556 -106.74388 6063 ft 256 kts 76°
2026-05-05 18:27 52.00021 -106.71735 5933 ft 239 kts 68°
2026-05-05 18:27 52.00542 -106.69216 5540 ft 230 kts 67°
2026-05-05 18:28 52.01536 -106.64519 4666 ft 213 kts 67°
2026-05-05 18:28 52.01967 -106.63106 4326 ft 209 kts 49°
2026-05-05 18:28 52.03149 -106.62005 3916 ft 193 kts
2026-05-05 18:29 52.04410 -106.62481 3928 ft 185 kts 337°
2026-05-05 18:29 52.05529 -106.63359 3975 ft 174 kts 335°
2026-05-05 18:29 52.06622 -106.64169 3969 ft 169 kts 338°
2026-05-05 18:29 52.07720 -106.64868 3864 ft 171 kts 340°
2026-05-05 18:30 52.08774 -106.65479 3678 ft 150 kts 341°
2026-05-05 18:30 52.09701 -106.65998 3345 ft 133 kts 341°
2026-05-05 18:30 52.10579 -106.66485 2786 ft 132 kts 341°
2026-05-05 18:30 52.11436 -106.66960 2670 ft 141 kts 340°
2026-05-05 18:31 52.12381 -106.67487 2500 ft 138 kts 339°
2026-05-05 18:31 52.13297 -106.67998 2324 ft 142 kts 339°
2026-05-05 18:31 52.14230 -106.68519 2127 ft 140 kts 339°
2026-05-05 18:31 52.15143 -106.69029 1927 ft 138 kts 340°
2026-05-05 18:32 52.16037 -106.69527 1761 ft 133 kts 339°
2026-05-05 18:32 52.16868 -106.69998 1650 ft 118 kts 339°
2026-05-05 18:32 52.17287 -106.70244 1652 ft 11 kts 341°
2026-05-05 18:32 52.17328 -106.70140 1650 ft 13 kts 95°
2026-05-05 18:33 52.17316 -106.70008 1649 ft 11 kts 101°
2026-05-05 18:33 52.17295 -106.69873 1648 ft 13 kts 103°
2026-05-05 18:33 52.17280 -106.69744 1649 ft 10 kts 98°
2026-05-05 18:33 52.17237 -106.69655 1648 ft 11 kts 153°
2026-05-05 18:34 52.17160 -106.69608 1648 ft 12 kts 160°
2026-05-05 18:34 52.17077 -106.69561 1648 ft 9 kts 161°
2026-05-05 18:34 52.17036 -106.69540 1647 ft 5 kts 163°
2026-05-05 18:34 52.17023 -106.69533 1648 ft 2 kts 160°
2026-05-05 18:35 52.17013 -106.69518 1648 ft 4 kts 131°
2026-05-05 18:35 52.17020 -106.69442 1648 ft 6 kts 45°
2026-05-05 18:35 52.17034 -106.69416 1647 ft 1 kts 71°
2026-05-05 18:35 52.17032 -106.69377 1648 ft 6 kts 111°
2026-05-05 18:36 52.17014 -106.69333 1648 ft 1 kts 128°
2026-05-05 18:36 52.17009 -106.69323 1648 ft 2 kts 130°
2026-05-05 18:36 52.17009 -106.69322 1648 ft 0 kts 130°